DateTimeUTC,F1_A11,F1_S11,BsB_S11,BsG_S11,BsR_S11,BbsB_S11,BbsG_S11,BbsR_S11,BaB_A11,BaG_A11,BaR_A11,Tu_S11,T_S11,Uu_S11,U_S11,P_S11,T1_A11
2021-05-19T08:00:00Z,00000200,20000000,,,,,,,-000.33,-000.05,-000.26,16.5,23.3,04.6,03.0,0678.6,30.8
2021-05-19T08:01:00Z,00000200,20000000,,,,,,,0000.03,-000.05,0000.09,16.5,23.4,04.6,03.0,0678.6,30.8
2021-05-19T08:02:00Z,00000200,20000000,,,,,,,0000.14,-000.07,-000.27,16.5,23.4,04.6,03.0,0678.6,30.8
2021-05-19T08:03:00Z,00000200,60000000,,,,,,,0000.33,0000.42,0000.22,16.5,23.4,04.6,03.0,0678.6,30.8
2021-05-19T08:04:00Z,00000200,40000000,0001.13,0000.80,0000.75,0000.22,0000.26,-000.03,0000.26,0000.06,0000.27,16.6,23.2,04.6,03.1,0679.5,30.8
2021-05-19T08:05:00Z,00000200,00000000,0000.44,0000.77,0000.52,0000.26,0000.18,0000.09,0000.07,-000.07,0000.27,16.7,23.2,04.6,03.1,0679.6,30.8
2021-05-19T08:06:00Z,00000200,00000000,0000.70,0000.78,0000.52,-000.12,0000.37,0000.27,0000.20,0000.30,0000.04,16.7,23.2,04.5,03.0,0679.6,30.8
2021-05-19T08:07:00Z,00000200,00000000,0000.75,0000.93,0000.54,0000.18,-000.24,0000.32,0000.36,0000.56,0000.22,16.7,23.1,04.5,03.0,0679.6,30.8
2021-05-19T08:08:00Z,00000200,00000000,0000.88,0000.66,0000.43,0000.05,0000.28,-000.00,0000.58,0000.01,0000.17,16.7,23.1,04.5,03.0,0679.6,30.8
2021-05-19T08:09:00Z,00000200,00000000,0000.52,0000.73,0000.53,0000.36,0000.34,-000.12,0000.19,0000.81,0000.27,16.7,23.1,04.6,03.1,0679.6,30.8
2021-05-19T08:10:00Z,00000200,00000000,0001.32,0000.64,0000.40,0000.05,0000.27,0000.07,0000.50,0000.09,0000.65,16.7,23.1,04.6,03.1,0679.6,30.8
2021-05-19T08:11:00Z,00000200,00000000,0000.63,0000.68,0000.93,0000.48,0000.17,-000.09,0000.54,0000.49,-000.06,16.7,23.1,04.6,03.1,0679.6,30.8
2021-05-19T08:12:00Z,00000200,00000000,0000.88,0000.73,0000.54,0000.61,0000.09,0000.16,0000.29,0000.47,0000.79,16.7,23.1,04.7,03.1,0679.6,30.8
2021-05-19T08:13:00Z,00000200,00000000,0000.83,0000.83,0000.50,0000.12,0000.35,0000.09,0000.36,0000.02,0000.05,16.7,23.2,04.7,03.2,0679.6,30.8
2021-05-19T08:14:00Z,00000200,00000000,0000.84,0000.82,0000.60,0000.37,0000.04,0000.15,0000.48,0000.30,0000.04,16.8,23.2,04.7,03.2,0679.6,30.9
2021-05-19T08:15:00Z,00000200,00000000,0000.80,0000.98,0000.48,-000.17,-000.05,0000.18,-000.10,0000.44,0000.30,16.8,23.2,04.9,03.3,0679.6,30.9
2021-05-19T08:16:00Z,00000200,00000000,0001.03,0000.97,0000.65,0000.31,-000.03,0000.02,0000.74,0000.65,0000.51,16.8,23.2,04.9,03.3,0679.6,30.8
2021-05-19T08:17:00Z,00000200,00000000,0001.05,0000.69,0000.50,0000.68,0000.26,0000.02,0000.45,0000.05,0000.37,16.8,23.2,05.0,03.3,0679.6,30.8
2021-05-19T08:18:00Z,00000200,00000000,0000.61,0000.70,0000.60,0000.24,0000.05,0000.06,0000.15,0000.47,0000.28,16.8,23.2,04.9,03.3,0679.6,30.8
2021-05-19T08:19:00Z,00000200,00000000,0000.21,0000.83,0000.41,0000.27,0000.09,0000.12,0000.40,0000.40,-000.17,16.8,23.2,05.0,03.3,0679.6,30.9
2021-05-19T08:20:00Z,00000200,00000000,0000.43,0000.76,0000.52,-000.28,0000.27,0000.15,0000.32,0000.12,0000.37,16.8,23.2,04.9,03.3,0679.6,30.9
2021-05-19T08:21:00Z,00000200,00000000,0000.37,0000.89,0000.51,-000.24,0000.15,0000.16,0000.34,0000.15,0000.33,16.8,23.2,04.9,03.3,0679.6,30.9
2021-05-19T08:22:00Z,00000200,00000000,0000.72,0001.09,0000.47,0000.14,0000.22,0000.11,0000.13,0000.55,0000.11,16.8,23.2,04.9,03.3,0679.5,30.9
2021-05-19T08:23:00Z,00000200,00000000,0000.05,0000.70,0000.37,-000.17,0000.11,0000.32,0000.61,0000.20,0000.43,16.8,23.2,04.9,03.3,0679.5,30.9
2021-05-19T08:24:00Z,00000200,00000000,0000.44,0001.08,0000.46,0000.69,0000.08,0000.02,0000.01,0000.20,0000.20,16.9,23.2,04.9,03.3,0679.5,30.9
2021-05-19T08:25:00Z,00000200,00000000,0000.36,0000.58,0000.66,0000.55,0000.38,0000.23,0000.83,0000.32,-000.35,16.9,23.2,04.8,03.3,0679.5,30.9
2021-05-19T08:26:00Z,00000200,00000000,0000.46,0000.67,0000.49,-000.11,0000.23,0000.29,-000.17,0000.27,0000.39,16.9,23.2,04.9,03.3,0679.5,30.9
2021-05-19T08:27:00Z,00000200,00000000,0000.80,0000.89,0000.79,0000.43,0000.19,0000.19,0000.70,0000.40,0000.53,16.9,23.2,04.9,03.3,0679.5,30.9
2021-05-19T08:28:00Z,00000200,00000000,0000.95,0000.60,0000.56,-000.55,0000.25,0000.21,0000.39,0000.04,0000.23,16.9,23.2,04.9,03.3,0679.5,30.9
2021-05-19T08:29:00Z,00000200,00000000,0000.91,0001.00,0000.57,0000.24,0000.14,0000.13,0000.48,0000.92,0000.40,16.9,23.2,04.9,03.3,0679.5,30.9
2021-05-19T08:30:00Z,00000200,00000000,0001.30,0000.85,0000.49,0000.12,0000.38,0000.09,0000.14,0000.18,0000.33,16.9,23.2,04.9,03.3,0679.5,30.9
2021-05-19T08:31:00Z,00000200,00000000,0000.28,0000.64,0000.56,0000.22,0000.12,0000.03,0000.48,0000.47,-000.02,16.9,23.2,05.0,03.4,0679.6,30.9
2021-05-19T08:32:00Z,00000200,00000000,0000.66,0000.64,0000.67,-000.02,0000.07,0000.13,0000.08,0000.31,0000.26,16.9,23.3,05.0,03.4,0679.6,30.9
2021-05-19T08:33:00Z,00000200,00000000,0000.74,0000.44,0000.18,0000.55,-000.04,-000.03,0000.55,0000.12,0000.16,16.9,23.3,05.0,03.4,0679.6,30.9
2021-05-19T08:34:00Z,00000200,00000000,0000.07,0000.85,0000.71,0000.11,0000.43,0000.23,0000.00,0000.13,0000.46,17.0,23.3,05.0,03.4,0679.6,30.9
2021-05-19T08:35:00Z,00000200,00000000,0000.71,0000.90,0000.78,0000.36,0000.27,-000.10,0000.83,0000.38,0000.12,17.0,23.3,05.1,03.5,0679.5,30.9
2021-05-19T08:36:00Z,00000200,00000000,0000.72,0000.75,0000.43,-000.16,0000.16,0000.12,0000.55,0000.47,0000.95,17.0,23.3,05.2,03.5,0679.5,30.9
2021-05-19T08:37:00Z,00000200,00000000,0000.27,0000.85,0000.51,0000.06,0000.26,0000.16,0000.25,0000.29,-000.08,17.0,23.3,05.3,03.6,0679.5,30.9
2021-05-19T08:38:00Z,00000200,00000000,0000.77,0001.00,0000.48,-000.00,0000.08,0000.31,0000.39,0000.62,0000.42,17.0,23.3,05.4,03.6,0679.5,30.9
2021-05-19T08:39:00Z,00000200,00000000,0000.54,0000.54,0000.65,-000.00,0000.04,0000.01,0000.41,0000.27,0000.07,17.0,23.3,05.3,03.6,0679.6,30.9
2021-05-19T08:40:00Z,00000200,00000000,0000.19,0000.89,0000.55,0000.30,0000.21,0000.00,0000.05,0000.37,0000.00,17.0,23.3,05.4,03.6,0679.6,30.9
2021-05-19T08:41:00Z,00000200,00000000,0000.83,0001.03,0000.71,0000.35,0000.28,0000.15,0000.09,-000.35,0000.06,17.0,23.3,05.3,03.6,0679.6,30.9
2021-05-19T08:42:00Z,00000200,00000000,0000.80,0000.65,0000.61,-000.01,0000.30,0000.16,0000.48,0000.44,-000.02,17.0,23.3,05.0,03.4,0679.6,30.9
2021-05-19T08:43:00Z,00000200,00000000,0000.72,0000.86,0000.59,0000.15,0000.16,-000.03,-000.01,0000.01,0000.46,17.0,23.4,04.8,03.3,0679.6,30.9
2021-05-19T08:44:00Z,00000200,00000000,0001.17,0000.62,0000.84,-000.01,0000.11,0000.23,0000.20,0000.46,-000.21,17.0,23.3,04.7,03.2,0679.6,30.9
2021-05-19T08:45:00Z,00000200,00000000,0000.77,0000.88,0000.72,0000.18,0000.10,0000.40,0001.13,0000.47,0000.66,17.0,23.3,04.8,03.3,0679.5,30.9
2021-05-19T08:46:00Z,00000200,00000000,0000.51,0000.82,0000.58,0000.11,0000.20,-000.06,0000.57,0000.83,0000.65,17.0,23.4,05.0,03.4,0679.5,30.9
2021-05-19T08:47:00Z,00000200,00000000,0000.92,0001.04,0000.42,0000.40,0000.28,0000.36,0000.66,0000.73,0000.86,17.0,23.4,05.0,03.4,0679.5,30.9
2021-05-19T08:48:00Z,00000200,00000000,0000.91,0000.61,0000.54,0000.45,0000.03,0000.20,0000.41,0000.30,0000.05,17.1,23.4,05.0,03.4,0679.5,30.9
2021-05-19T08:49:00Z,00000200,00000000,0000.80,0001.16,0000.67,-000.01,-000.18,-000.19,0000.13,-000.07,-000.11,17.1,23.4,04.9,03.3,0679.6,30.9
2021-05-19T08:50:00Z,00000200,00000000,0000.96,0001.04,0000.77,0000.24,0000.33,0000.16,0000.13,-000.03,0000.05,17.1,23.4,04.6,03.1,0679.6,30.9
2021-05-19T08:51:00Z,00000200,00000000,0001.10,0000.79,0000.65,0000.47,0000.31,0000.19,0000.04,0000.01,0000.04,17.1,23.4,04.4,03.0,0679.6,30.9
2021-05-19T08:52:00Z,00000200,00000000,0000.93,0000.66,0000.40,0000.21,0000.17,-000.09,0000.39,0000.28,-000.14,17.1,23.4,04.4,02.9,0679.6,30.9
2021-05-19T08:53:00Z,00000200,00000000,0000.46,0000.80,0000.50,-000.23,0000.15,-000.13,0000.17,0000.17,0000.26,17.1,23.4,04.2,02.8,0679.6,30.9
2021-05-19T08:54:00Z,00000200,00000000,0001.03,0000.92,0000.38,-000.14,0000.05,0000.15,0000.11,0000.05,-000.29,17.1,23.4,03.9,02.7,0679.6,30.9
2021-05-19T08:55:00Z,00000200,00000000,0001.09,0000.54,0000.59,-000.04,0000.16,-000.23,0000.71,0000.45,0000.20,17.1,23.4,03.8,02.6,0679.6,30.9
2021-05-19T08:56:00Z,00000200,00000000,0000.47,0000.68,0000.37,0000.09,0000.17,0000.24,0000.72,0000.78,0000.77,17.1,23.4,03.7,02.5,0679.6,30.9
2021-05-19T08:57:00Z,00000200,40000000,,,,,,,0000.39,0000.67,0000.87,17.2,23.5,04.1,02.8,0679.6,30.9
2021-05-19T08:58:00Z,00000200,60000000,,,,,,,0000.02,-000.31,-000.44,16.9,23.6,04.0,02.6,0678.6,30.9
2021-05-19T08:59:00Z,00000200,20000000,,,,,,,0000.54,0000.35,0000.47,16.9,23.7,04.0,02.6,0678.6,30.9
